Weather History for Patuxent River, MD

Change the Weather History Date:

Tuesday, February 5, 2013

  Actual Average Record
Temperature  
Mean Temperature 40 °F -  
Max Temperature 46 °F 37 °F 39 °F (2014)
Min Temperature 32 °F 24 °F 32 °F (2014)
Degree Days  
Heating Degree Days 26    
Moisture  
Dew Point 27 °F    
Average Humidity 61    
Maximum Humidity 88    
Minimum Humidity 47    
Precipitation  
Precipitation 0.00 in - - ()
Sea Level Pressure  
Sea Level Pressure 29.89 in    
Wind  
Wind Speed 6 mph (West)    
Max Wind Speed 10 mph    
Max Gust Speed -    
Visibility 9 miles    
Events      
Averages and records for this station are not official NWS values.
T = Trace of Precipitation, MM = Missing Value Source: NWS Daily Summary

Daily Weather History Graph

Daily Weather History Graph

Search for Another Location

Airport:

Trip Planner

Search our weather history database for the weather conditions in past years. The results will help you decide how hot, cold, wet, or windy it might be!

Date:

Astronomy

Feb. 05, 2013 Rise Set
Actual Time 7:06 AM EST 5:33 PM EST
Civil Twilight 6:39 AM EST 6:00 PM EST
Nautical Twilight 6:07 AM EST 6:32 PM EST
Astronomical Twilight 5:36 AM EST 7:03 PM EST
Moon 2:44 AM EST (2/5) 12:50 PM EST (2/5)
Length of Visible Light 11h 21m
Length of Day
10h 26m
Waning Crescent, 27% of the Moon is Illuminated
Feb 5
Waning Crescent
Feb 10
New
Feb 17
First Quarter
Feb 25
Full
Mar 4
Last Quarter

Hourly Weather History & Observations

Time (EST) Temp. Windchill Dew Point Humidity Pressure Visibility Wind Dir Wind Speed Gust Speed Precip Events Conditions
12:52 AM 41.0 °F 36.4 °F 23.0 °F 49% 29.91 in 10.0 mi SSW 6.9 mph - N/A   Overcast
1:52 AM 42.1 °F 36.1 °F 23.0 °F 47% 29.90 in 10.0 mi SSW 10.4 mph - 0.00 in   Overcast
2:52 AM 41.0 °F 35.8 °F 24.1 °F 51% 29.90 in 10.0 mi SSW 8.1 mph - N/A   Partly Cloudy
3:52 AM 41.0 °F 37.1 °F 24.1 °F 51% 29.88 in 10.0 mi South 5.8 mph - N/A   Mostly Cloudy
4:52 AM 41.0 °F 36.4 °F 24.1 °F 51% 29.87 in 10.0 mi South 6.9 mph - N/A   Partly Cloudy
5:14 AM 41.0 °F 37.1 °F 24.8 °F 53% 29.86 in 10.0 mi South 5.8 mph - N/A   Scattered Clouds
5:52 AM 41.0 °F 36.4 °F 24.1 °F 51% 29.88 in 10.0 mi SSW 6.9 mph - N/A   Scattered Clouds
6:52 AM 41.0 °F 38.0 °F 25.0 °F 53% 29.88 in 10.0 mi South 4.6 mph - N/A   Mostly Cloudy
7:52 AM 41.0 °F 38.0 °F 26.1 °F 55% 29.89 in 10.0 mi SW 4.6 mph - N/A   Mostly Cloudy
8:52 AM 43.0 °F 40.3 °F 27.0 °F 53% 29.91 in 10.0 mi WSW 4.6 mph - N/A   Mostly Cloudy
9:52 AM 45.0 °F 41.8 °F 28.0 °F 52% 29.93 in 10.0 mi NNW 5.8 mph - N/A   Mostly Cloudy
10:52 AM 46.9 °F - 28.0 °F 48% 29.91 in 10.0 mi WNW 5.8 mph - N/A   Mostly Cloudy
11:52 AM 44.1 °F 39.5 °F 30.9 °F 60% 29.91 in 10.0 mi NNE 8.1 mph - N/A   Mostly Cloudy
12:52 PM 44.1 °F 40.8 °F 30.0 °F 58% 29.89 in 10.0 mi NNE 5.8 mph - N/A   Overcast
1:52 PM 43.0 °F 37.7 °F 28.9 °F 58% 29.86 in 10.0 mi NNE 9.2 mph - N/A   Mostly Cloudy
2:52 PM 43.0 °F 37.7 °F 28.0 °F 56% 29.86 in 10.0 mi NNE 9.2 mph - N/A   Overcast
3:52 PM 42.1 °F 37.7 °F 27.0 °F 55% 29.86 in 10.0 mi North 6.9 mph - N/A   Overcast
4:52 PM 39.9 °F 36.7 °F 30.0 °F 68% 29.87 in 10.0 mi NNE 4.6 mph - N/A   Overcast
5:52 PM 37.0 °F - 30.0 °F 76% 29.87 in 10.0 mi Calm Calm - N/A   Mostly Cloudy
6:52 PM 37.9 °F 33.5 °F 30.0 °F 73% 29.89 in 10.0 mi NW 5.8 mph - N/A   Mostly Cloudy
7:52 PM 37.0 °F 34.5 °F 30.9 °F 79% 29.89 in 8.0 mi WNW 3.5 mph - N/A   Mostly Cloudy
8:52 PM 35.1 °F 32.2 °F 30.0 °F 82% 29.90 in 7.0 mi NW 3.5 mph - N/A   Clear
9:52 PM 34.0 °F 31.0 °F 28.9 °F 82% 29.91 in 6.0 mi Variable 3.5 mph - N/A   Haze
10:52 PM 33.1 °F 30.0 °F 28.9 °F 85% 29.92 in 6.0 mi WNW 3.5 mph - N/A   Partly Cloudy
11:52 PM 32.0 °F - 28.9 °F 88% 29.93 in 4.0 mi Calm Calm - N/A   Clear